Printer-friendly version

IAU Minor Planet Center

Minor Planet Center

MPEC 2008-E06 : 2008 DW22

The following Minor Planet Electronic Circular may be linked-to from your own Web pages, but must not otherwise be redistributed electronically.


Read MPEC 2008-E05 Read MPEC 2008-E07


M.P.E.C. 2008-E06                                Issued 2008 Mar. 1, 15:12 UT

     The Minor Planet Electronic Circulars contain information on unusual
         minor planets and routine data on comets.  They are published
   on behalf of Commission 20 of the International Astronomical Union by the
          Minor Planet Center, Smithsonian Astrophysical Observatory,
                          Cambridge, MA 02138, U.S.A.

             Prepared using the Tamkin Foundation Computer Network

                              MPC@CFA.HARVARD.EDU
          URL http://www.cfa.harvard.edu/iau/mpc.html  ISSN 1523-6714

                                   2008 DW22

Observations:
     K08D22W  C2008 02 28.28619 10 54 47.59 +13 58 09.0          20.8 V EE006G96
     K08D22W  C2008 02 28.29662 10 54 49.57 +13 58 03.7          21.7 V EE006G96
     K08D22W  C2008 02 28.30704 10 54 51.55 +13 57 57.7          21.5 V EE006G96
     K08D22W  C2008 02 28.31743 10 54 53.53 +13 57 52.5          22.6 V EE006G96
     K08D22W* C2008 02 28.32569 10 54 55.08 +13 57 48.6          21.0 V EE006G96
     K08D22W  C2008 02 28.33435 10 54 56.66 +13 57 43.8          22.4 V EE006G96
     K08D22W  C2008 02 28.34306 10 54 58.39 +13 57 39.7                 EE006G96
     K08D22W  C2008 02 28.35181 10 55 00.05 +13 57 34.8          21.0 V EE006G96
     K08D22W  C2008 03 01.38286 11 02 35.99 +13 37 38.8          21.1 V EE006G96
     K08D22W  C2008 03 01.38721 11 02 36.83 +13 37 35.3          21.0 V EE006G96
     K08D22W  C2008 03 01.39157 11 02 37.74 +13 37 32.8          21.1 V EE006G96
     K08D22W  C2008 03 01.39590 11 02 38.62 +13 37 29.6          21.1 V EE006G96

Observer details:
G96 Mt. Lemmon Survey.  Observers R. A. Kowalski, E. Beshore.  Measurers
    E. C. Beshore, A. Boattini, G. J. Garradd, A. R. Gibbs, A. D. Grauer,
    R. E. Hill, R. A. Kowalski, S. M. Larson, R. H. McNaught.  1.5-m reflector
    + CCD.

Orbital elements:
2008 DW22                                                Earth MOID = 0.0879 AU
Epoch 2008 May 14.0 TT = JDT 2454600.5                  MPC
M  22.75566              (2000.0)            P               Q
n   0.41869304     Peri.   74.61049     -0.99981651     +0.01279371
a   1.7695882      Node   106.12095     -0.01737684     -0.91896648
e   0.3877611      Incl.    0.85035     +0.00806178     -0.39412807
P   2.35           H   25.4           G   0.15           U   9
Residuals in seconds of arc
080228 G96  0.0   0.2-    080228 G96  0.0   0.1+    080301 G96  0.6+  0.2+
080228 G96  0.0   0.1-    080228 G96  0.8-  0.0     080301 G96  0.2-  0.3-
080228 G96  0.0   0.7-    080228 G96  0.3+  0.7+    080301 G96  0.1-  0.1+
080228 G96  0.2+  0.4-    080228 G96  0.3+  0.6+    080301 G96  0.3-  0.1-

Ephemeris:
2008 DW22                a,e,i = 1.77, 0.39, 1                   q = 1.0834
Date    TT    R. A. (2000) Decl.     Delta      r     Elong.  Phase     V
2008 02 24    10 40.38   +14 30.3    0.126    1.115   174.1     5.2    21.6
2008 02 26    10 46.83   +14 17.0    0.121    1.110   173.9     5.5    21.5
2008 02 28    10 53.74   +14 01.1    0.116    1.106   173.5     5.8    21.4
2008 03 01    11 01.15   +13 42.1    0.112    1.102   173.1     6.2    21.3
2008 03 03    11 09.05   +13 19.7    0.108    1.098   172.7     6.6    21.3
2008 03 05    11 17.45   +12 53.5    0.104    1.095   172.3     6.9    21.2
2008 03 07    11 26.34   +12 23.3    0.101    1.092   171.9     7.3    21.1
2008 03 09    11 35.70   +11 48.6    0.0979   1.090   171.5     7.7    21.1
2008 03 11    11 45.49   +11 09.3    0.0954   1.088   171.1     8.1    21.1
2008 03 13    11 55.66   +10 25.4    0.0933   1.086   170.6     8.6    21.0
2008 03 15    12 06.15   +09 36.8    0.0916   1.085   170.1     9.0    21.0
2008 03 17    12 16.88   +08 43.9    0.0903   1.084   169.6     9.5    21.0
2008 03 19    12 27.75   +07 47.1    0.0894   1.083   169.1    10.0    21.0
2008 03 21    12 38.66   +06 46.9    0.0888   1.083   168.5    10.5    21.0
2008 03 23    12 49.50   +05 44.2    0.0887   1.084   168.0    11.1    21.0
2008 03 25    13 00.16   +04 39.8    0.0890   1.084   167.4    11.6    21.0
2008 03 27    13 10.55   +03 34.3    0.0896   1.085   166.9    12.1    21.1
2008 03 29    13 20.58   +02 28.7    0.0906   1.087   166.4    12.5    21.1
2008 03 31    13 30.17   +01 23.6    0.0921   1.089   166.0    12.8    21.2
2008 04 02    13 39.28   +00 19.8    0.0938   1.091   165.7    13.1    21.2
2008 04 04    13 47.84   -00 42.3    0.0959   1.093   165.5    13.2    21.3
2008 04 06    13 55.85   -01 42.3    0.0984   1.096   165.4    13.3    21.3
2008 04 08    14 03.30   -02 40.0    0.101    1.100   165.5    13.2    21.4
2008 04 10    14 10.18   -03 35.0    0.104    1.103   165.7    13.0    21.5
2008 04 12    14 16.52   -04 27.4    0.108    1.107   166.0    12.7    21.5
2008 04 14    14 22.33   -05 17.0    0.111    1.112   166.4    12.3    21.6
2008 04 16    14 27.64   -06 03.9    0.115    1.116   166.9    11.7    21.7
2008 04 18    14 32.48   -06 48.0    0.120    1.121   167.6    11.1    21.7
2008 04 20    14 36.86   -07 29.5    0.124    1.127   168.3    10.4    21.8
2008 04 22    14 40.82   -08 08.5    0.129    1.132   169.1     9.6    21.9
2008 04 24    14 44.39   -08 45.1    0.134    1.138   170.0     8.8    21.9

Timothy B. Spahr             (C) Copyright 2008 MPC           M.P.E.C. 2008-E06

Read MPEC 2008-E05 Read MPEC 2008-E07


Our Web policy. Index to the CBAT/MPC/ICQ pages.


Valid HTML 4.01!